• In Russia
  • List of Countries
  • For 7 days
  • Water Temperature
  • Satellite Maps
  • Weather Map
  • Weather Widgets
  • user-avatar
    Login

    Hourly Weather Korçe

    Today, 22 January, Sunday

    Time Temperature Precipitation Wind Pressure Humidity
    00:00 -4°C° 0 mm 2 mps 671 mmHg 89%
    01:00 -5°C° 0 mm 2 mps 671 mmHg 89%
    02:00 -5°C° 0 mm 2 mps 671 mmHg 89%
    03:00 -5°C° 0 mm 2 mps 671 mmHg 89%
    04:00 -5°C° 0 mm 2 mps 671 mmHg 90%
    05:00 -5°C° 0 mm 2 mps 671 mmHg 90%
    06:00 -5°C° 0 mm 2 mps 671 mmHg 90%
    07:00 -6°C° 0 mm 2 mps 671 mmHg 89%
    08:00 -4°C° 0 mm 2 mps 671 mmHg 86%
    09:00 -2°C° 0 mm 2 mps 672 mmHg 83%
    10:00 +1°C° 0 mm 2 mps 672 mmHg 80%
    11:00 +1°C° 0 mm 2 mps 672 mmHg 78%
    12:00 +2°C° 0 mm 2 mps 672 mmHg 77%
    13:00 +3°C° 0 mm 2 mps 672 mmHg 76%
    14:00 +2°C° 0 mm 2 mps 672 mmHg 79%
    15:00 +3°C° 0 mm 1 mps 672 mmHg 83%
    16:00 +2°C° 0 mm 1 mps 671 mmHg 86%
    17:00 -1°C° 0 mm 2 mps 671 mmHg 87%
    18:00 -3°C° 0 mm 2 mps 671 mmHg 89%
    19:00 -4°C° 0 mm 2 mps 671 mmHg 90%
    20:00 -4°C° 0 mm 2 mps 671 mmHg 90%
    21:00 -4°C° 0 mm 2 mps 671 mmHg 90%
    22:00 -4°C° 0 mm 2 mps 671 mmHg 90%
    23:00 -4°C° 0 mm 2 mps 671 mmHg 90%

    Tomorrow, 23 January, Monday

    Time Temperature Precipitation Wind Pressure Humidity
    00:00 -4°C° 0 mm 2 mps 670 mmHg 90%
    01:00 -4°C° 0 mm 2 mps 670 mmHg 89%
    02:00 -4°C° 0 mm 2 mps 670 mmHg 90%
    03:00 -5°C° 0 mm 2 mps 670 mmHg 90%
    04:00 -5°C° 0 mm 2 mps 670 mmHg 90%
    05:00 -5°C° 0 mm 2 mps 669 mmHg 90%
    06:00 -5°C° 0 mm 2 mps 669 mmHg 90%
    07:00 -5°C° 0 mm 2 mps 669 mmHg 90%
    08:00 -4°C° 0 mm 2 mps 669 mmHg 86%
    09:00 -2°C° 0 mm 2 mps 669 mmHg 83%
    10:00 -1°C° 0 mm 2 mps 670 mmHg 79%
    11:00 +1°C° 0 mm 2 mps 669 mmHg 79%
    12:00 +1°C° 0 mm 2 mps 669 mmHg 78%
    13:00 +2°C° 0 mm 2 mps 669 mmHg 77%
    14:00 +1°C° 0.1 mm 2 mps 668 mmHg 80%
    15:00 +1°C° 0.1 mm 2 mps 668 mmHg 84%
    16:00 -1°C° 0.1 mm 2 mps 667 mmHg 87%
    17:00 -1°C° 0.5 mm 2 mps 667 mmHg 89%
    18:00 -2°C° 0.5 mm 2 mps 666 mmHg 90%
    19:00 -2°C° 0.5 mm 2 mps 666 mmHg 92%
    20:00 -2°C° 1 mm 2 mps 666 mmHg 92%
    21:00 -2°C° 1 mm 2 mps 666 mmHg 93%
    22:00 -2°C° 1 mm 3 mps 665 mmHg 93%
    23:00 -2°C° 1.5 mm 2 mps 665 mmHg 94%

    Day after tomorrow, 24 January, Tuesday

    Time Temperature Precipitation Wind Pressure Humidity
    00:00 -2°C° 1.5 mm 2 mps 665 mmHg 95%
    01:00 -2°C° 1.5 mm 2 mps 665 mmHg 95%
    02:00 -2°C° 1.6 mm 2 mps 664 mmHg 95%
    03:00 -2°C° 1.6 mm 2 mps 664 mmHg 96%
    04:00 -2°C° 1.6 mm 2 mps 663 mmHg 96%
    05:00 -2°C° 0.6 mm 2 mps 663 mmHg 95%
    06:00 -2°C° 0.6 mm 2 mps 663 mmHg 95%
    07:00 -3°C° 0.6 mm 2 mps 663 mmHg 95%
    08:00 -2°C° 0.3 mm 2 mps 663 mmHg 94%
    09:00 -1°C° 0.3 mm 2 mps 663 mmHg 94%
    10:00 -1°C° 0.3 mm 2 mps 664 mmHg 93%
    11:00 +1°C° 0.4 mm 2 mps 663 mmHg 93%
    12:00 +2°C° 0.4 mm 1 mps 663 mmHg 94%
    13:00 +2°C° 0.4 mm 1 mps 663 mmHg 94%
    14:00 +2°C° 0.4 mm 1 mps 663 mmHg 94%
    15:00 +2°C° 0.4 mm 1 mps 663 mmHg 94%
    16:00 +2°C° 0.4 mm 1 mps 663 mmHg 95%
    17:00 +1°C° 0.3 mm 1 mps 663 mmHg 94%
    18:00 +1°C° 0.3 mm 1 mps 663 mmHg 94%
    19:00 0°C° 0.3 mm 1 mps 663 mmHg 94%
    20:00 0°C° 0.2 mm 1 mps 663 mmHg 93%
    21:00 0°C° 0.2 mm 1 mps 663 mmHg 93%
    22:00 0°C° 0.2 mm 1 mps 663 mmHg 93%
    23:00 -1°C° 0.1 mm 1 mps 663 mmHg 93%

    25 January, Wednesday

    Time Temperature Precipitation Wind Pressure Humidity
    00:00 -1°C° 0.1 mm 1 mps 663 mmHg 93%
    01:00 -1°C° 0.1 mm 1 mps 663 mmHg 93%
    02:00 -1°C° 0.2 mm 1 mps 663 mmHg 93%
    03:00 -1°C° 0.2 mm 1 mps 663 mmHg 93%
    04:00 -1°C° 0.2 mm 1 mps 663 mmHg 93%
    05:00 -1°C° 0.2 mm 1 mps 663 mmHg 93%
    06:00 -1°C° 0.2 mm 1 mps 663 mmHg 93%
    07:00 -3°C° 0.2 mm 2 mps 664 mmHg 93%
    08:00 -3°C° 0.2 mm 2 mps 664 mmHg 93%
    09:00 -2°C° 0.2 mm 2 mps 665 mmHg 92%
    10:00 -1°C° 0.2 mm 2 mps 666 mmHg 91%
    11:00 -1°C° 0.2 mm 2 mps 666 mmHg 90%
    12:00 +1°C° 0.2 mm 2 mps 666 mmHg 89%
    13:00 +1°C° 0.2 mm 2 mps 666 mmHg 88%
    14:00 +1°C° 0.2 mm 2 mps 666 mmHg 89%
    15:00 +2°C° 0.2 mm 1 mps 666 mmHg 90%
    16:00 +1°C° 0.2 mm 1 mps 666 mmHg 92%
    17:00 -2°C° 0.1 mm 2 mps 666 mmHg 92%
    18:00 -3°C° 0.1 mm 2 mps 666 mmHg 92%
    19:00 -4°C° 0.1 mm 2 mps 666 mmHg 93%
    20:00 -4°C° 0.1 mm 2 mps 667 mmHg 93%
    21:00 -4°C° 0.1 mm 2 mps 667 mmHg 93%
    22:00 -4°C° 0.1 mm 2 mps 667 mmHg 92%
    23:00 -4°C° 0.1 mm 2 mps 667 mmHg 92%

    26 January, Thursday

    Time Temperature Precipitation Wind Pressure Humidity
    00:00 -4°C° 0.1 mm 2 mps 667 mmHg 92%
    01:00 -5°C° 0.1 mm 2 mps 667 mmHg 92%
    02:00 -5°C° 0.1 mm 2 mps 667 mmHg 92%
    03:00 -5°C° 0.1 mm 2 mps 668 mmHg 92%
    04:00 -5°C° 0.1 mm 2 mps 668 mmHg 92%
    05:00 -5°C° 0.1 mm 2 mps 668 mmHg 92%
    06:00 -5°C° 0.1 mm 2 mps 668 mmHg 92%
    07:00 -5°C° 0.1 mm 2 mps 668 mmHg 92%
    08:00 -4°C° 0.1 mm 2 mps 669 mmHg 90%
    09:00 -3°C° 0.1 mm 2 mps 670 mmHg 89%
    10:00 -2°C° 0.1 mm 2 mps 670 mmHg 88%
    11:00 -2°C° 0.1 mm 2 mps 670 mmHg 87%
    12:00 -1°C° 0.1 mm 2 mps 670 mmHg 86%
    13:00 +1°C° 0.1 mm 2 mps 670 mmHg 86%
    14:00 -1°C° 0.1 mm 2 mps 670 mmHg 87%
    15:00 +1°C° 0.1 mm 1 mps 670 mmHg 88%
    16:00 +1°C° 0.1 mm 1 mps 670 mmHg 90%
    17:00 0°C° 0 mm 1 mps 670 mmHg 90%
    18:00 -3°C° 0 mm 2 mps 671 mmHg 91%
    19:00 -4°C° 0 mm 2 mps 671 mmHg 92%
    20:00 -5°C° 0 mm 2 mps 671 mmHg 92%
    21:00 -5°C° 0 mm 2 mps 671 mmHg 92%
    22:00 -6°C° 0 mm 2 mps 671 mmHg 92%
    23:00 -6°C° 0 mm 2 mps 671 mmHg 91%

    27 January, Friday

    Time Temperature Precipitation Wind Pressure Humidity
    00:00 -6°C° 0 mm 2 mps 672 mmHg 91%
    01:00 -7°C° 0 mm 2 mps 672 mmHg 91%
    02:00 -7°C° 0 mm 2 mps 672 mmHg 91%
    03:00 -8°C° 0 mm 2 mps 672 mmHg 91%
    04:00 -8°C° 0 mm 2 mps 672 mmHg 90%
    05:00 -8°C° 0 mm 2 mps 672 mmHg 90%
    06:00 -8°C° 0 mm 2 mps 672 mmHg 90%
    07:00 -9°C° 0 mm 2 mps 672 mmHg 90%
    08:00 -7°C° 0 mm 2 mps 673 mmHg 86%
    09:00 -5°C° 0 mm 2 mps 674 mmHg 83%
    10:00 -3°C° 0 mm 2 mps 675 mmHg 80%
    11:00 0°C° 0 mm 1 mps 675 mmHg 78%
    12:00 +1°C° 0 mm 1 mps 675 mmHg 76%
    13:00 +2°C° 0 mm 1 mps 675 mmHg 74%
    14:00 +1°C° 0 mm 1 mps 674 mmHg 78%
    15:00 0°C° 0 mm 1 mps 674 mmHg 81%
    16:00 -1°C° 0 mm 1 mps 674 mmHg 84%
    17:00 -4°C° 0 mm 1 mps 673 mmHg 86%
    18:00 -7°C° 0 mm 1 mps 673 mmHg 88%
    19:00 -9°C° 0 mm 1 mps 672 mmHg 91%
    20:00 -9°C° 0 mm 1 mps 672 mmHg 88%
    21:00 -9°C° 0 mm 1 mps 672 mmHg 86%
    22:00 -9°C° 0 mm 1 mps 672 mmHg 83%
    23:00 -9°C° 0 mm 1 mps 672 mmHg 79%
    Show more